| time (UTC) | temp F | wind direction | speed MPH | gust MPH | rain 1hr in | rain 24hr in | rain mn in | humidity % | barometer mb |
| 20260905054543 | 51 | 313 | 1.0 | 4.0 | 0.00 | 0.00 | 0.00 | 63 | 1011.3 |
| 20260905053047 | 51 | 291 | 1.0 | 4.0 | 0.00 | 0.00 | 0.00 | 61 | 1011.5 |
| 20260905051539 | 53 | 281 | 1.0 | 4.0 | 0.00 | 0.00 | 0.00 | 59 | 1011.8 |
| 20260905050039 | 53 | 292 | 1.0 | 3.0 | 0.00 | 0.00 | 0.00 | 57 | 1011.6 |
| 20260905044540 | 54 | 316 | 0.0 | 3.0 | 0.00 | 0.00 | 0.00 | 55 | 1011.6 |
| 20260905043038 | 56 | 311 | 0.0 | 2.0 | 0.00 | 0.00 | 0.00 | 53 | 1011.9 |
| 20260905041537 | 58 | 71 | 0.0 | 1.0 | 0.00 | 0.00 | 0.00 | 50 | 1011.9 |
| 20260905040034 | 59 | 71 | 0.0 | 2.0 | 0.00 | 0.00 | 0.00 | 49 | 1011.1 |
| 20260905034533 | 59 | 71 | 2.0 | 3.0 | 0.00 | 0.00 | 0.00 | 48 | 1011.1 |
| 20260905033035 | 61 | 319 | 0.0 | 1.0 | 0.00 | 0.00 | 0.00 | 46 | 1011.0 |
| 20260905031532 | 63 | 319 | 1.0 | 4.0 | 0.00 | 0.00 | 0.00 | 43 | 1010.6 |
| 20260905030036 | 63 | 31 | 0.0 | 3.0 | 0.00 | 0.00 | 0.00 | 44 | 1010.5 |
| 20260905024532 | 64 | 355 | 1.0 | 2.0 | 0.00 | 0.00 | 0.00 | 42 | 1010.1 |
| 20260905023027 | 65 | 5 | 0.0 | 2.0 | 0.00 | 0.00 | 0.00 | 41 | 1010.2 |
| 20260905021524 | 66 | 5 | 1.0 | 6.0 | 0.00 | 0.00 | 0.00 | 39 | 1009.6 |
| 20260905020028 | 67 | 346 | 4.0 | 11.0 | 0.00 | 0.00 | 0.00 | 39 | 1008.9 |
| 20260905014517 | 68 | 346 | 8.0 | 13.0 | 0.00 | 0.00 | 0.00 | 37 | 1008.5 |
| 20260905013014 | 69 | 360 | 9.0 | 17.0 | 0.00 | 0.00 | 0.00 | 36 | 1007.8 |
| 20260905011514 | 70 | 321 | 6.0 | 17.0 | 0.00 | 0.00 | 0.00 | 35 | 1007.8 |
| 20260905010013 | 70 | 331 | 9.0 | 19.0 | 0.00 | 0.00 | 0.00 | 34 | 1007.9 |
| 20260905004513 | 71 | 360 | 8.0 | 16.0 | 0.00 | 0.00 | 0.00 | 34 | 1007.8 |
| 20260905003012 | 71 | 310 | 8.0 | 17.0 | 0.00 | 0.00 | 0.00 | 33 | 1008.0 |
| 20260905001510 | 72 | 344 | 9.0 | 21.0 | 0.00 | 0.00 | 0.00 | 33 | 1007.4 |
| 20260905000010 | 73 | 312 | 7.0 | 15.0 | 0.00 | 0.00 | 0.00 | 32 | 1007.3 |
| 20260904234509 | 74 | 320 | 9.0 | 18.0 | 0.00 | 0.00 | 0.00 | 31 | 1007.5 |
| 20260904233008 | 74 | 315 | 5.0 | 13.0 | 0.00 | 0.00 | 0.00 | 32 | 1007.4 |
| 20260904231507 | 75 | 11 | 6.0 | 15.0 | 0.00 | 0.00 | 0.00 | 32 | 1007.4 |
| 20260904230006 | 75 | 300 | 5.0 | 16.0 | 0.00 | 0.00 | 0.00 | 32 | 1007.5 |
| 20260904224505 | 75 | 320 | 6.0 | 13.0 | 0.00 | 0.00 | 0.00 | 32 | 1007.4 |
| 20260904223004 | 75 | 346 | 6.0 | 12.0 | 0.00 | 0.00 | 0.00 | 32 | 1007.2 |
| 20260904221613 | 75 | 343 | 6.0 | 15.0 | 0.00 | 0.00 | 0.00 | 33 | 1007.1 |
| 20260904214608 | 75 | 264 | 4.0 | 16.0 | 0.00 | 0.00 | 0.00 | 33 | 1006.5 |
| 20260904213056 | 76 | 351 | 6.0 | 14.0 | 0.00 | 0.00 | 0.00 | 33 | 1006.2 |
| 20260904211603 | 77 | 270 | 7.0 | 12.0 | 0.00 | 0.00 | 0.00 | 31 | 1006.0 |
| 20260904210055 | 77 | 241 | 5.0 | 10.0 | 0.00 | 0.00 | 0.00 | 31 | 1005.7 |
| 20260904204551 | 76 | 344 | 5.0 | 11.0 | 0.00 | 0.00 | 0.00 | 32 | 1005.5 |
| 20260904203051 | 77 | 304 | 6.0 | 12.0 | 0.00 | 0.00 | 0.00 | 30 | 1005.5 |
| 20260904201551 | 76 | 231 | 4.0 | 11.0 | 0.00 | 0.00 | 0.00 | 32 | 1005.3 |
| 20260904200059 | 75 | 303 | 7.0 | 14.0 | 0.00 | 0.00 | 0.00 | 32 | 1005.4 |
| 20260904194554 | 75 | 240 | 3.0 | 11.0 | 0.00 | 0.00 | 0.00 | 33 | 1005.1 |
| 20260904193052 | 77 | 240 | 6.0 | 11.0 | 0.00 | 0.00 | 0.00 | 31 | 1004.7 |
| 20260904191545 | 75 | 234 | 3.0 | 9.0 | 0.00 | 0.00 | 0.00 | 32 | 1004.6 |
| 20260904190042 | 74 | 302 | 3.0 | 10.0 | 0.00 | 0.00 | 0.00 | 35 | 1004.7 |
| 20260904184540 | 73 | 257 | 4.0 | 10.0 | 0.00 | 0.00 | 0.00 | 37 | 1004.7 |
| 20260904183037 | 71 | 244 | 5.0 | 10.0 | 0.00 | 0.00 | 0.00 | 37 | 1004.7 |
| 20260904181540 | 71 | 263 | 2.0 | 10.0 | 0.00 | 0.00 | 0.00 | 37 | 1004.6 |
| 20260904180033 | 70 | 252 | 4.0 | 7.0 | 0.00 | 0.00 | 0.00 | 37 | 1004.5 |
| 20260904174533 | 69 | 248 | 3.0 | 11.0 | 0.00 | 0.00 | 0.00 | 40 | 1004.5 |
| 20260904173033 | 68 | 253 | 4.0 | 11.0 | 0.00 | 0.00 | 0.00 | 40 | 1004.6 |
| 20260904171541 | 69 | 254 | 5.0 | 11.0 | 0.00 | 0.00 | 0.00 | 38 | 1004.3 |
| 20260904170029 | 69 | 207 | 4.0 | 8.0 | 0.00 | 0.00 | 0.00 | 42 | 1004.2 |
| 20260904164528 | 69 | 289 | 3.0 | 8.0 | 0.00 | 0.00 | 0.00 | 43 | 1003.9 |
| 20260904163029 | 67 | 311 | 1.0 | 5.0 | 0.00 | 0.00 | 0.00 | 43 | 1003.6 |
| 20260904161532 | 66 | 275 | 0.0 | 3.0 | 0.00 | 0.00 | 0.00 | 46 | 1003.6 |
| 20260904160019 | 65 | 19 | 1.0 | 5.0 | 0.00 | 0.00 | 0.00 | 46 | 1003.2 |
| 20260904154515 | 64 | 41 | 3.0 | 6.0 | 0.00 | 0.00 | 0.00 | 48 | 1002.8 |
| 20260904153017 | 62 | 76 | 2.0 | 8.0 | 0.00 | 0.00 | 0.00 | 49 | 1002.9 |
| 20260904151508 | 62 | 37 | 4.0 | 9.0 | 0.00 | 0.00 | 0.00 | 50 | 1002.7 |
| 20260904150015 | 61 | 29 | 6.0 | 8.0 | 0.00 | 0.00 | 0.00 | 51 | 1002.7 |
| 20260904144501 | 59 | 65 | 1.0 | 7.0 | 0.00 | 0.00 | 0.00 | 55 | 1002.8 |
| 20260904143100 | 56 | 331 | 1.0 | 4.0 | 0.00 | 0.00 | 0.00 | 65 | 1003.0 |
| 20260904141600 | 55 | 321 | 2.0 | 4.0 | 0.00 | 0.00 | 0.00 | 67 | 1003.2 |
| 20260904140058 | 55 | 326 | 2.0 | 6.0 | 0.00 | 0.00 | 0.00 | 66 | 1003.3 |
| 20260904134601 | 54 | 302 | 0.0 | 2.0 | 0.00 | 0.00 | 0.00 | 66 | 1003.1 |
| 20260904133056 | 54 | 312 | 1.0 | 4.0 | 0.00 | 0.00 | 0.00 | 62 | 1002.9 |
| 20260904131621 | 55 | 325 | 2.0 | 3.0 | 0.00 | 0.00 | 0.00 | 60 | 1002.9 |
| 20260904130054 | 54 | 331 | 2.0 | 4.0 | 0.00 | 0.00 | 0.00 | 61 | 1002.7 |
| 20260904124553 | 54 | 340 | 1.0 | 3.0 | 0.00 | 0.00 | 0.00 | 61 | 1002.7 |
| 20260904123057 | 55 | 318 | 1.0 | 4.0 | 0.00 | 0.00 | 0.00 | 59 | 1002.8 |
| 20260904121553 | 54 | 33 | 3.0 | 5.0 | 0.00 | 0.00 | 0.00 | 61 | 1002.7 |
| 20260904120053 | 53 | 22 | 1.0 | 3.0 | 0.00 | 0.00 | 0.00 | 63 | 1002.8 |
| 20260904114552 | 53 | 339 | 1.0 | 3.0 | 0.00 | 0.00 | 0.00 | 63 | 1002.9 |
| 20260904113047 | 52 | 327 | 1.0 | 3.0 | 0.00 | 0.00 | 0.00 | 64 | 1003.0 |
| 20260904111546 | 52 | 328 | 0.0 | 3.0 | 0.00 | 0.00 | 0.00 | 63 | 1003.1 |
| 20260904110042 | 53 | 336 | 1.0 | 3.0 | 0.00 | 0.00 | 0.00 | 62 | 1003.4 |
| 20260904104540 | 54 | 351 | 2.0 | 5.0 | 0.00 | 0.00 | 0.00 | 59 | 1003.6 |
| 20260904103050 | 55 | 316 | 2.0 | 5.0 | 0.00 | 0.00 | 0.00 | 57 | 1003.7 |
| 20260904101539 | 56 | 9 | 2.0 | 5.0 | 0.00 | 0.00 | 0.00 | 56 | 1003.8 |
| 20260904100038 | 56 | 330 | 2.0 | 6.0 | 0.00 | 0.00 | 0.00 | 54 | 1003.8 |
| 20260904094539 | 56 | 343 | 3.0 | 6.0 | 0.00 | 0.00 | 0.00 | 55 | 1003.7 |
| 20260904093034 | 55 | 342 | 3.0 | 6.0 | 0.00 | 0.00 | 0.00 | 56 | 1003.8 |
| 20260904091534 | 55 | 5 | 4.0 | 7.0 | 0.00 | 0.00 | 0.00 | 57 | 1003.8 |
| 20260904090033 | 54 | 28 | 3.0 | 6.0 | 0.00 | 0.00 | 0.00 | 57 | 1004.1 |
| 20260904084529 | 53 | 360 | 2.0 | 5.0 | 0.00 | 0.00 | 0.00 | 58 | 1004.3 |
| 20260904083032 | 54 | 331 | 2.0 | 4.0 | 0.00 | 0.00 | 0.00 | 57 | 1004.7 |
| 20260904081523 | 54 | 348 | 3.0 | 5.0 | 0.00 | 0.00 | 0.00 | 56 | 1004.9 |
| 20260904080019 | 56 | 17 | 4.0 | 7.0 | 0.00 | 0.00 | 0.00 | 54 | 1005.2 |
| 20260904074534 | 56 | 360 | 2.0 | 5.0 | 0.00 | 0.00 | 0.00 | 54 | 1005.1 |
| 20260904073020 | 56 | 82 | 2.0 | 5.0 | 0.00 | 0.00 | 0.00 | 53 | 1005.3 |
| 20260904071513 | 58 | 49 | 2.0 | 7.0 | 0.00 | 0.00 | 0.00 | 51 | 1005.4 |
| 20260904070012 | 58 | 355 | 4.0 | 7.0 | 0.00 | 0.00 | 0.00 | 51 | 1005.3 |
| 20260904064516 | 59 | 360 | 3.0 | 7.0 | 0.00 | 0.00 | 0.00 | 51 | 1005.4 |
| 20260904063009 | 59 | 21 | 2.0 | 5.0 | 0.00 | 0.00 | 0.00 | 52 | 1005.5 |
| 20260904061506 | 58 | 19 | 2.0 | 4.0 | 0.00 | 0.00 | 0.00 | 53 | 1005.6 |
| 20260904060002 | 57 | 309 | 0.0 | 2.0 | 0.00 | 0.00 | 0.00 | 55 | 1005.7 |